Location: Cerezo de Arriba
(41.2389°N, 3.5585°W)
Time: 03:18:22
(UTC+00:00)

USA 59 Rocket - Pass Details

Date: 19 May 2025
Orbit: 373 x 1695 km, 63.3° (Epoch: 23 June)

Event Time Altitude Azimuth Distance (km) Brightness Sun altitude
Exits shadow 23:56:48 13° 328° (NNW) 1,260 2.3 -28.7°
Drops below altitude 10° 23:57:53 10° 349° (N) 1,418 2.9 -28.7°
Sets 00:00:33 0° 18° (NNE) 2,241 4.0 -28.7°
